This is the latest recevied weather packets stored in our database for station/object W2OBX. If no packets are shown the sender has not sent any weather packets the latest 10 day(s).
| Time | Temp. | Humidity | Pressure | Rain* | Wind** | Luminosity | Snow |
|---|---|---|---|---|---|---|---|
| 1778005886 | 24.44° C | 45% | 1014.2 hPa | 0 mm | - | 443 W/m² | - |
| 1778005581 | 24.44° C | 43% | 1014.2 hPa | 0 mm | - | 275 W/m² | - |
| 1778005279 | 23.89° C | 45% | 1014.3 hPa | 0 mm | - | 313 W/m² | - |
| 1778004975 | 23.89° C | 46% | 1014.6 hPa | 0 mm | - | 313 W/m² | - |
| 1778004673 | 23.89° C | 47% | 1014.5 hPa | 0 mm | - | 231 W/m² | - |
| 1778004368 | 23.89° C | 44% | 1014.4 hPa | 0 mm | - | 178 W/m² | - |
| 1778004066 | 24.44° C | 44% | 1014.5 hPa | 0 mm | - | 173 W/m² | - |
| 1778003762 | 23.89° C | 43% | 1014.5 hPa | 0 mm | - | 172 W/m² | - |
| 1778003458 | 23.89° C | 43% | 1014.5 hPa | 0 mm | - | 200 W/m² | - |
| 1778003155 | 24.44° C | 45% | 1014.5 hPa | 0 mm | - | 215 W/m² | - |
| 1778002851 | 23.89° C | 46% | 1014.6 hPa | 0 mm | - | 215 W/m² | - |
| 1778002548 | 23.89° C | 43% | 1014.7 hPa | 0 mm | - | 155 W/m² | - |
| 1778002245 | 23.89° C | 46% | 1014.7 hPa | 0 mm | - | 224 W/m² | - |
| 1778001943 | 23.89° C | 44% | 1015 hPa | 0 mm | - | 321 W/m² | - |
| 1778001639 | 23.89° C | 46% | 1015.1 hPa | 0 mm | - | 356 W/m² | - |
| 1778001334 | 23.89° C | 44% | 1015.2 hPa | 0 mm | - | 390 W/m² | - |
| 1778001031 | 23.89° C | 41% | 1015.4 hPa | 0 mm | - | 391 W/m² | - |
| 1778000728 | 23.89° C | 45% | 1015.2 hPa | 0 mm | - | 261 W/m² | - |
| 1778000424 | 23.89° C | 45% | 1015.5 hPa | 0 mm | - | 337 W/m² | - |
| 1778000119 | 23.89° C | 47% | 1015.7 hPa | 0 mm | - | 144 W/m² | - |
| 1777999815 | 23.89° C | 47% | 1015.7 hPa | 0 mm | - | 195 W/m² | - |
| 1777999511 | 23.33° C | 48% | 1015.5 hPa | 0 mm | - | 132 W/m² | - |
| 1777999210 | 22.78° C | 49% | 1015.6 hPa | 0 mm | - | 108 W/m² | - |
| 1777998908 | 23.33° C | 48% | 1015.5 hPa | 0 mm | - | 110 W/m² | - |
| 1777998604 | 23.33° C | 44% | 1015.4 hPa | 0 mm | - | 104 W/m² | - |
* Rain latest hour (hover to see other rain measurements)
** Current wind speed in m/s (hover to see current wind gust speed)